Location: Spring Creek
(38.2870°N, 100.2160°W)
Time: 09:03:10
(UTC+00:00)

Cosmos 1544 Rocket - Pass Details

Date: 08 May 2021
Orbit: 605 x 629 km, 82.5° (Epoch: 21 June)

Event Time Altitude Azimuth Distance (km) Brightness Sun altitude
Rises 09:32:00 0° 353° (N) 2,886 7.5 -21.1°
Reaches altitude 10° 09:34:13 10° 355° (N) 1,981 6.6 -20.7°
Maximum altitude 09:38:37 83° 83° (E) 628 3.5 -20.1°
Enters shadow 09:40:56 28° 169° (S) 1,174 4.7 -19.8°
